Snowfall_Accumulation
0.0 0.0 0.0 0.0 0.0 0.0 0.0 0.0 0.0 0.0 0.0 0.0 0.0 0.0 0.0 0.0 0.0 0.0 0.0 0.0 0.0 0.0 0.0 0.0 0.0 0.0 0.0 0.0 0.0 0.0 0.0 0.0 0.0 0.0 0.0 0.0 0.0 0.0 0.0 0.0 0.0 0.0 0.0
0.0 0.0 0.0 0.0 0.0 0.0 0.0 0.0 0.0 0.0 0.0 0.0 0.0 0.0 0.0 0.0 0.0 0.0 0.0 0.0 0.0 0.0 0.0 0.0 0.0 0.0 0.0 0.0 0.0 0.0 0.0 0.0 0.0 0.0 0.0 0.1 0.0 0.0 0.0 0.0 0.0 0.0 0.0
0.0 0.0 0.0 0.0 0.0 0.0 0.0 0.0 0.0 0.0 0.0 0.0 0.0 0.0 0.0 0.0 0.0 0.0 0.0 0.0 0.0 0.0 0.0 0.0 0.0 0.0 0.0 0.0 0.0 0.0 0.0 0.0 0.0 0.0 0.0 0.0 0.0 0.0 0.0 0.0 0.0 0.0 0.0
0.0 0.0 0.0 0.0 0.0 0.0 0.0 0.0 0.0 0.0 0.0 0.0 0.0 0.0 0.0 0.0 0.0 0.0 0.0 0.0 0.0 0.0 0.0 0.0 0.0 0.0 0.0 0.0 0.0 0.0 0.0 0.0 0.0 0.0 0.1 0.1 0.1 0.0 0.0 0.0 0.0 0.0 0.0
0.0 0.0 0.0 0.0 0.0 0.0 0.0 0.0 0.0 0.0 0.0 0.0 0.0 0.0 0.0 0.0 0.0 0.0 0.0 0.0 0.0 0.0 0.0 0.0 0.0 nan nan nan 0.0 0.0 0.0 0.0 0.1 0.2 0.2 0.2 0.0 0.0 0.0 0.0 0.0 0.0 0.0
0.0 0.0 0.0 0.0 0.0 0.0 0.0 0.0 0.0 0.0 0.0 0.0 0.0 0.0 0.0 0.0 nan nan 0.0 0.0 0.0 0.0 0.0 0.0 0.0 0.0 0.0 nan nan nan nan 0.0 0.0 0.2 0.1 0.0 0.0 0.0 0.0 0.0 0.2 0.1 0.3
0.0 0.0 0.0 0.0 0.0 0.0 0.0 0.0 0.0 0.0 0.0 0.0 0.0 0.0 0.0 0.0 nan nan nan 0.0 0.0 0.0 0.0 0.0 0.0 0.0 nan 0.0 nan nan nan nan nan 0.0 0.0 0.0 0.0 0.0 0.0 0.0 0.0 0.2 0.0
0.0 0.0 0.0 0.0 0.0 0.0 0.0 0.0 0.0 0.0 0.0 0.0 0.0 0.0 0.0 0.0 nan nan nan 0.0 0.0 0.0 0.0 0.0 0.0 0.0 0.0 0.0 0.0 0.0 0.0 0.0 0.0 0.0 0.0 0.0 0.0 0.0 0.0 0.0 0.0 0.0 0.0
0.0 0.0 0.0 0.0 0.0 0.0 0.0 0.0 0.0 0.0 0.0 0.0 0.0 0.0 0.0 0.0 nan nan 0.0 0.0 0.0 0.0 0.0 0.0 0.0 0.0 nan nan 0.0 0.0 0.0 0.0 nan nan nan nan nan nan nan 0.1 0.3 0.5 0.4
0.0 0.0 0.0 0.0 0.0 0.0 0.0 0.0 0.0 0.0 0.0 0.2 0.0 0.0 nan 0.0 nan nan nan 0.0 0.0 0.0 0.0 0.0 nan 0.0 nan nan 0.0 0.0 0.0 0.0 0.0 0.0 0.0 0.0 nan nan nan 0.0 0.3 1.2 1.3
0.0 0.0 0.0 0.0 0.0 0.0 0.0 0.0 0.0 0.0 0.0 0.0 0.0 0.0 0.0 0.0 0.0 nan nan 0.0 0.0 0.0 0.0 0.0 0.0 nan nan nan nan 0.0 0.0 0.0 0.0 0.0 0.0 0.0 0.0 0.0 0.0 0.0 0.0 0.6 2.1
0.0 0.0 0.0 0.0 0.0 0.0 0.0 0.0 0.0 0.0 0.0 0.0 0.0 0.0 0.0 0.0 nan nan nan nan nan 0.0 0.0 0.0 0.0 nan nan nan nan nan nan nan 0.0 0.0 0.1 0.3 0.4 0.4 0.4 0.3 0.0 0.1 0.2
0.0 0.0 0.0 0.0 0.0 0.0 0.0 0.0 0.0 0.0 0.0 0.0 0.0 0.0 0.0 0.0 0.0 nan nan nan nan 0.0 0.0 0.0 nan nan nan nan nan nan nan 0.0 0.1 0.5 0.5 0.7 0.6 0.7 0.4 0.7 0.2 0.2 0.5
0.0 0.0 0.0 0.0 0.0 0.0 0.0 0.0 0.0 0.0 0.0 0.0 0.0 0.0 0.0 0.0 0.0 0.0 0.0 0.0 nan 0.0 nan 0.1 nan 0.0 nan nan 0.0 0.0 0.0 0.0 0.3 0.7 0.6 0.5 0.6 1.5 1.4 1.2 3.1 2.5 4.3
0.0 0.0 0.0 0.0 0.0 0.0 0.0 0.0 0.0 0.0 0.0 0.0 0.1 0.1 0.3 0.2 0.0 0.0 0.0 0.0 0.0 0.0 nan 0.0 0.0 0.0 0.1 0.0 0.0 0.0 0.0 0.0 0.5 0.6 1.2 1.2 1.1 1.6 2.1 2.0 3.7 4.4 7.9
0.0 0.0 0.0 0.0 0.0 0.0 0.0 0.0 nan nan nan nan nan 0.0 0.0 nan nan nan nan nan nan nan 0.0 0.0 0.2 0.2 0.3 0.1 0.1 0.1 0.1 0.5 0.8 1.4 1.5 1.7 3.1 4.3 5.3 6.1 5.8 6.5 9.6
0.0 0.0 0.0 0.0 0.0 0.0 0.0 0.1 0.2 0.0 nan nan nan nan nan nan nan nan nan nan nan nan 0.0 0.5 0.5 0.5 0.5 0.6 0.7 1.0 1.9 1.0 1.8 3.7 4.1 4.4 5.3 6.0 7.7 7.5 7.3 6.1 7.8
0.0 nan 0.0 0.0 0.1 0.1 0.1 0.1 0.1 0.3 0.3 0.0 nan nan nan nan nan nan nan nan 0.0 nan 0.5 0.9 1.1 0.9 0.9 1.2 1.2 2.1 2.4 2.8 3.8 5.6 6.8 7.2 8.5 9.2 10.3 10.7 8.2 10.9 8.9
0.1 0.3 0.1 0.1 0.1 0.2 0.1 0.2 0.2 0.4 0.3 0.2 0.0 0.0 nan nan nan nan nan 0.1 0.7 0.8 1.0 1.3 1.0 1.3 1.6 1.8 2.2 3.2 3.0 5.7 8.2 10.2 8.2 9.5 9.5 11.0 10.0 8.2 7.8 6.4 nan
0.1 nan 0.1 0.3 0.3 0.3 0.3 0.3 0.3 0.3 0.4 0.5 0.7 0.7 0.4 0.5 0.8 0.4 0.3 0.5 0.9 0.8 1.0 1.6 1.9 1.9 2.3 2.7 4.0 4.7 7.2 7.4 8.7 8.6 9.2 9.0 7.8 8.2 11.2 9.1 6.9 11.4 8.6
0.3 0.5 nan 0.7 0.8 1.1 1.3 1.6 1.2 1.1 1.2 1.2 1.8 0.7 nan 1.5 1.6 0.9 0.9 1.2 1.3 1.5 2.0 2.3 2.7 3.2 3.4 3.8 4.8 6.5 7.5 7.6 7.8 9.8 10.0 8.7 7.4 9.6 5.9 6.3 6.6 6.9 9.2
0.7 0.8 0.9 1.3 1.0 1.0 1.5 2.0 2.5 2.6 2.3 2.4 1.8 0.7 nan 1.7 2.3 2.3 2.2 2.3 2.7 2.0 1.9 2.6 3.7 3.6 4.1 5.8 6.8 8.0 7.7 8.3 8.1 9.3 9.3 8.2 6.9 6.1 5.3 5.9 6.6 7.6 9.2
0.6 0.9 0.9 1.0 1.1 nan 1.5 1.6 2.4 2.7 3.1 3.0 2.9 2.6 2.0 2.8 2.7 3.9 4.4 3.2 2.7 2.5 2.1 2.1 2.7 4.3 2.5 3.8 4.7 7.1 12.1 8.8 7.4 7.6 10.0 8.2 6.9 6.7 6.6 7.4 7.1 8.6 6.9
0.2 0.4 0.7 1.1 1.5 1.9 2.1 2.1 1.9 nan 2.3 2.7 2.8 3.1 3.4 3.4 3.4 3.9 3.9 3.8 3.9 3.9 3.6 4.2 3.9 3.9 4.6 5.2 4.8 5.7 6.2 6.9 6.5 8.3 9.0 11.3 9.1 5.8 7.3 8.1 6.7 8.6 7.9
1.4 1.5 1.6 1.7 1.7 1.5 1.2 1.5 1.6 2.2 2.8 2.8 2.8 2.7 2.7 2.9 3.5 4.4 4.3 4.9 5.4 5.8 5.4 5.4 6.6 7.6 6.7 7.8 7.6 6.4 4.8 nan 4.5 2.3 5.7 5.8 6.5 6.8 8.1 8.5 7.2 7.1 7.7
1.4 1.2 1.2 1.4 1.2 1.2 1.2 1.6 1.9 1.9 2.5 2.1 2.9 3.4 3.2 3.6 3.5 4.9 4.9 5.3 6.3 6.0 6.5 6.9 7.4 9.1 9.4 9.4 8.6 3.6 nan nan 2.4 nan 3.4 5.6 7.2 7.3 6.7 8.1 7.1 7.4 6.5
Water_Equivalent
0.00 0.00 0.00 0.00 0.00 0.00 0.00 0.00 0.00 0.00 0.00 0.00 0.00 0.00 0.00 0.00 0.00 0.00 0.00 0.00 0.00 0.00 0.00 0.00 0.00 0.00 0.00 0.00 0.00 0.00 0.00 0.00 0.00 0.00 0.00 0.00 0.00 0.00 0.00 0.00 0.00 0.00 0.00
0.00 0.00 0.00 0.00 0.00 0.00 0.00 0.00 0.00 0.00 0.00 0.00 0.00 0.00 0.00 0.00 0.00 0.00 0.00 0.00 0.00 0.00 0.00 0.00 0.00 0.00 0.00 0.00 0.00 0.00 0.00 0.00 0.00 0.00 0.00 0.05 0.01 0.00 0.00 0.00 0.00 0.00 0.00
0.00 0.00 0.00 0.00 0.00 0.00 0.00 0.00 0.00 0.00 0.00 0.00 0.00 0.00 0.00 0.00 0.00 0.00 0.00 0.00 0.00 0.00 0.00 0.00 0.00 0.00 0.00 0.00 0.00 0.00 0.00 0.00 0.01 0.02 0.01 0.00 0.00 0.00 0.00 0.00 0.00 0.00 0.00
0.00 0.00 0.00 0.00 0.00 0.00 0.00 0.00 0.00 0.00 0.00 0.00 0.00 0.00 0.00 0.00 0.00 0.00 0.00 0.00 0.00 0.00 0.00 0.00 0.00 0.00 0.00 0.00 0.00 0.00 0.00 0.00 0.00 0.01 0.02 0.06 0.05 0.00 0.00 0.00 0.00 0.00 0.00
0.00 0.00 0.00 0.00 0.00 0.00 0.00 0.00 0.00 0.00 0.00 0.00 0.00 0.00 0.00 0.00 0.00 0.00 0.00 0.00 0.00 0.00 0.00 0.00 0.00 nan nan nan 0.00 0.01 0.00 0.00 0.04 0.08 0.09 0.07 0.00 0.00 0.00 0.00 0.00 0.00 0.00
0.00 0.00 0.00 0.00 0.00 0.00 0.00 0.00 0.00 0.00 0.00 0.00 0.00 0.00 0.00 0.00 nan nan 0.00 0.00 0.00 0.00 0.00 0.00 0.00 0.00 0.00 nan nan nan nan 0.00 0.00 0.10 0.02 0.00 0.00 0.00 0.00 0.00 0.08 0.04 0.12
0.00 0.00 0.00 0.00 0.00 0.00 0.00 0.00 0.00 0.00 0.00 0.00 0.00 0.00 0.00 0.00 nan nan nan 0.00 0.00 0.00 0.00 0.00 0.00 0.00 nan 0.00 nan nan nan nan nan 0.00 0.00 0.00 0.00 0.00 0.00 0.01 0.00 0.06 0.02
0.00 0.00 0.00 0.00 0.00 0.00 0.00 0.00 0.00 0.00 0.00 0.00 0.00 0.00 0.00 0.00 nan nan nan 0.00 0.00 0.00 0.00 0.00 0.00 0.00 0.00 0.00 0.00 0.00 0.00 0.00 0.00 0.00 0.00 0.00 0.00 0.00 0.00 0.00 0.00 0.00 0.00
0.00 0.00 0.00 0.00 0.00 0.00 0.00 0.00 0.00 0.00 0.00 0.00 0.00 0.00 0.00 0.00 nan nan 0.00 0.00 0.00 0.00 0.00 0.00 0.00 0.00 nan nan 0.00 0.00 0.00 0.00 nan nan nan nan nan nan nan 0.02 0.11 0.18 0.12
0.00 0.00 0.00 0.00 0.00 0.00 0.00 0.00 0.00 0.00 0.00 0.07 0.00 0.00 nan 0.00 nan nan nan 0.00 0.00 0.00 0.00 0.00 nan 0.00 nan nan 0.00 0.00 0.00 0.00 0.00 0.00 0.00 0.00 nan nan nan 0.00 0.11 0.38 0.38
0.00 0.00 0.00 0.00 0.00 0.00 0.00 0.00 0.00 0.00 0.00 0.00 0.00 0.00 0.00 0.00 0.00 nan nan 0.00 0.00 0.00 0.00 0.00 0.00 nan nan nan nan 0.00 0.00 0.00 0.00 0.00 0.00 0.00 0.00 0.00 0.00 0.01 0.00 0.22 0.59
0.00 0.00 0.00 0.00 0.00 0.00 0.00 0.00 0.00 0.00 0.00 0.00 0.00 0.00 0.00 0.00 nan nan nan nan nan 0.00 0.00 0.00 0.00 nan nan nan nan nan nan nan 0.00 0.00 0.05 0.10 0.14 0.16 0.15 0.11 0.01 0.05 0.09
0.00 0.00 0.00 0.00 0.00 0.00 0.00 0.00 0.00 0.00 0.00 0.00 0.00 0.00 0.00 0.00 0.00 nan nan nan nan 0.00 0.00 0.00 nan nan nan nan nan nan nan 0.01 0.02 0.13 0.18 0.26 0.23 0.24 0.14 0.23 0.08 0.07 0.15
0.00 0.00 0.00 0.00 0.00 0.00 0.00 0.00 0.00 0.00 0.00 0.00 0.00 0.00 0.00 0.00 0.00 0.00 0.00 0.00 nan 0.00 nan 0.04 nan 0.00 nan nan 0.00 0.00 0.01 0.00 0.07 0.16 0.17 0.17 0.22 0.46 0.41 0.37 0.79 0.69 1.03
0.00 0.00 0.00 0.00 0.00 0.00 0.00 0.00 0.00 0.00 0.00 0.00 0.02 0.03 0.05 0.05 0.00 0.00 0.00 0.00 0.00 0.00 nan 0.00 0.00 0.00 0.04 0.00 0.00 0.00 0.00 0.01 0.16 0.16 0.30 0.31 0.34 0.44 0.56 0.55 0.94 1.14 1.69
0.00 0.00 0.00 0.00 0.00 0.00 0.00 0.00 nan nan nan nan nan 0.00 0.00 nan nan nan nan nan nan nan 0.00 0.00 0.05 0.07 0.08 0.01 0.02 0.03 0.04 0.16 0.21 0.37 0.42 0.45 0.73 1.03 1.24 1.53 1.42 1.56 1.84
0.00 0.00 0.00 0.00 0.00 0.00 0.00 0.01 0.03 0.00 nan nan nan nan nan nan nan nan nan nan nan nan 0.01 0.13 0.14 0.14 0.14 0.15 0.19 0.26 0.44 0.29 0.49 0.97 0.98 1.04 1.22 1.40 1.82 1.70 1.73 1.40 1.48
0.00 nan 0.01 0.01 0.01 0.02 0.02 0.02 0.02 0.06 0.05 0.00 nan nan nan nan nan nan nan nan 0.01 nan 0.17 0.26 0.31 0.24 0.23 0.29 0.31 0.55 0.58 0.65 0.93 1.33 1.60 1.64 1.97 2.06 2.26 2.24 1.82 1.89 1.45
0.04 0.09 0.03 0.02 0.02 0.05 0.03 0.03 0.03 0.07 0.05 0.04 0.01 0.00 nan nan nan nan nan 0.01 0.16 0.20 0.26 0.32 0.25 0.34 0.42 0.47 0.57 0.79 0.67 1.24 1.81 2.19 1.75 2.08 2.14 2.37 2.04 1.71 1.67 1.20 nan
0.02 nan 0.04 0.06 0.05 0.06 0.07 0.07 0.07 0.06 0.09 0.12 0.17 0.17 0.09 0.14 0.21 0.12 0.10 0.15 0.22 0.21 0.25 0.38 0.48 0.48 0.57 0.68 0.98 1.10 1.62 1.68 1.80 1.74 1.89 1.84 1.62 1.72 2.00 1.63 1.19 1.72 1.28
0.07 0.12 nan 0.16 0.16 0.23 0.25 0.34 0.24 0.22 0.24 0.23 0.36 0.14 nan 0.34 0.38 0.22 0.22 0.30 0.31 0.38 0.48 0.56 0.67 0.82 0.90 0.97 1.15 1.42 1.61 1.57 1.56 1.92 1.95 1.71 1.46 1.53 1.05 1.15 1.15 1.11 1.37
0.19 0.19 0.20 0.29 0.23 0.22 0.29 0.39 0.47 0.52 0.46 0.45 0.33 0.16 nan 0.34 0.50 0.52 0.49 0.56 0.66 0.48 0.48 0.65 0.95 0.90 1.02 1.38 1.52 1.78 1.59 1.59 1.56 1.78 1.74 1.58 1.31 1.02 0.86 0.93 1.00 1.16 1.36
0.13 0.17 0.17 0.19 0.21 nan 0.34 0.35 0.45 0.51 0.57 0.55 0.58 0.53 0.39 0.56 0.53 0.72 0.78 0.62 0.58 0.56 0.50 0.52 0.70 1.01 0.71 1.06 1.34 1.90 2.62 1.72 1.53 1.65 1.85 1.45 1.14 1.09 1.13 1.21 1.07 1.20 0.96
0.05 0.09 0.15 0.22 0.28 0.35 0.37 0.35 0.33 nan 0.48 0.48 0.48 0.53 0.58 0.58 0.60 0.64 0.67 0.67 0.68 0.69 0.70 0.85 0.83 0.86 1.04 1.33 1.29 1.61 1.78 1.99 1.84 1.88 1.97 2.29 1.58 1.07 1.24 1.21 1.00 1.11 1.10
0.28 0.29 0.30 0.31 0.30 0.27 0.20 0.26 0.26 0.33 0.42 0.41 0.41 0.41 0.44 0.47 0.57 0.73 0.71 0.82 0.91 0.95 0.89 0.90 1.14 1.35 1.31 1.65 1.74 1.73 1.44 nan 1.45 0.76 1.43 1.32 1.23 1.14 1.33 1.29 1.05 1.07 1.03
0.25 0.22 0.21 0.23 0.20 0.21 0.20 0.26 0.32 0.33 0.42 0.35 0.46 0.54 0.49 0.54 0.53 0.77 0.76 0.81 0.92 0.89 0.95 1.05 1.13 1.34 1.47 1.81 1.82 1.02 nan nan 0.71 nan 0.95 1.24 1.21 1.16 1.11 1.23 1.05 1.08 0.93
SL_Ratio
nan nan nan nan nan nan nan nan nan nan nan nan nan nan nan nan nan nan nan nan nan nan nan nan nan nan nan nan nan nan nan nan nan nan nan nan nan nan nan nan nan nan nan
nan nan nan nan nan nan nan nan nan nan nan nan nan nan nan nan nan nan nan nan nan nan nan nan nan nan nan nan nan nan nan nan nan nan 0.0 2.5 2.5 nan nan nan nan nan nan
nan nan nan nan nan nan nan nan nan nan nan nan nan nan nan nan nan nan nan nan nan nan nan nan nan nan nan nan nan nan 2.5 2.0 2.5 2.5 2.0 5.0 nan nan nan nan nan nan nan
nan nan nan nan nan nan nan nan nan nan nan nan nan nan nan nan nan nan nan nan nan nan nan nan nan nan nan nan nan nan nan 5.0 nan 2.6 2.5 2.5 2.5 5.0 nan nan nan nan nan
nan nan nan nan nan nan nan nan nan nan nan nan nan nan nan nan nan nan nan nan nan nan nan nan nan nan nan nan 2.5 2.5 nan 2.1 2.5 2.5 2.5 2.5 3.3 nan nan nan nan nan nan
nan nan nan nan nan nan nan nan nan nan nan nan nan nan nan nan nan nan nan nan nan nan nan nan nan nan nan nan nan nan nan nan nan 2.5 2.6 nan nan nan nan nan 2.6 2.6 2.8
nan nan nan nan nan nan nan nan nan nan nan nan nan nan nan nan nan nan nan nan 2.9 nan nan nan nan nan nan nan nan nan nan nan nan nan nan nan nan nan 2.7 2.7 2.3 2.7 2.8
nan nan nan nan nan nan nan nan nan nan nan nan nan nan nan nan nan nan nan 0.0 5.0 5.0 nan nan nan nan nan nan nan nan nan nan nan nan nan nan nan nan nan 0.0 nan nan 3.3
nan nan nan nan nan nan nan nan nan nan nan nan nan 0.0 nan nan nan nan nan nan nan nan nan nan nan nan nan nan nan 0.0 nan nan nan nan nan nan nan nan nan 2.4 2.6 2.8 3.0
nan nan nan nan nan nan nan nan nan nan nan 2.5 nan nan nan nan nan nan nan nan nan nan 0.0 nan nan nan nan nan nan nan nan nan nan 0.0 nan nan nan nan nan nan 2.7 3.2 3.3
nan nan nan nan nan nan nan nan nan 0.0 nan nan nan nan nan nan nan nan nan nan nan nan nan nan nan nan nan nan nan nan nan nan nan nan nan nan nan nan nan 2.4 nan 3.0 3.5
nan nan nan nan nan nan nan nan nan nan nan nan nan nan nan nan nan nan nan nan nan nan nan nan nan nan nan nan nan nan nan nan nan 5.0 2.6 2.5 2.6 2.6 2.5 2.5 2.6 2.6 2.7
nan nan nan nan nan nan nan nan nan nan nan nan nan nan nan nan nan nan nan nan nan nan nan nan nan nan nan nan nan nan nan 2.5 4.2 3.5 2.7 2.7 2.7 2.7 3.0 3.2 3.0 3.0 3.3
nan nan nan nan nan nan nan nan nan nan nan nan nan nan nan nan nan nan nan nan nan nan nan 2.5 nan nan nan nan nan nan 2.5 10.0 4.4 4.3 3.7 2.8 2.8 3.4 3.5 3.3 3.9 3.7 4.1
nan nan nan nan nan nan nan nan nan nan nan 4.0 4.1 4.4 5.1 5.1 nan nan nan nan nan nan nan nan nan 0.0 2.9 nan nan nan nan 2.8 3.4 3.5 3.9 3.8 3.3 3.6 3.7 3.5 3.9 3.8 4.7
nan nan nan nan nan nan 0.0 nan nan nan nan nan nan nan nan nan nan nan nan nan nan nan nan 5.0 3.5 3.4 3.8 6.7 5.1 4.5 3.5 3.4 3.6 3.7 3.6 3.8 4.3 4.2 4.2 4.0 4.1 4.2 5.2
5.0 nan nan nan nan nan nan 5.0 5.5 nan nan nan nan nan nan nan nan nan nan nan nan nan 5.2 3.5 3.8 3.8 4.0 3.9 3.8 3.9 4.3 3.5 3.6 3.8 4.2 4.2 4.4 4.3 4.2 4.4 4.2 4.3 5.3
nan nan 3.1 4.3 4.7 4.8 4.8 4.8 5.2 5.8 6.1 5.5 nan nan nan nan nan nan nan nan 2.9 nan 3.2 3.7 3.7 3.7 3.9 4.1 4.0 3.9 4.1 4.2 4.1 4.2 4.2 4.4 4.3 4.5 4.6 4.8 4.5 5.8 6.2
3.5 3.9 4.3 4.4 4.3 4.7 4.7 5.0 5.5 5.5 6.4 5.5 3.6 10.0 nan nan nan nan nan 5.1 4.3 4.0 4.0 4.0 3.9 3.9 3.9 3.9 3.8 4.0 4.5 4.6 4.5 4.7 4.6 4.6 4.4 4.6 4.9 4.8 4.7 5.3 nan
3.7 nan 3.6 4.7 5.3 4.8 4.5 4.5 4.7 4.9 4.7 4.6 4.0 3.8 4.6 3.6 3.6 3.2 3.0 3.3 3.9 4.0 4.1 4.2 4.1 3.9 3.9 3.9 4.1 4.3 4.5 4.4 4.8 4.9 4.9 4.9 4.8 4.8 5.6 5.6 5.8 6.7 6.7
4.3 3.9 nan 4.4 4.8 4.9 5.2 4.8 5.0 4.9 4.9 5.1 4.9 4.9 nan 4.3 4.3 4.3 4.1 4.1 4.2 4.0 4.1 4.0 4.0 3.9 3.7 3.9 4.1 4.6 4.7 4.8 5.0 5.1 5.1 5.1 5.1 6.3 5.6 5.4 5.8 6.3 6.8
4.0 4.1 4.5 4.4 4.3 4.6 5.0 5.0 5.3 5.1 5.1 5.3 5.5 4.5 nan 4.9 4.6 4.5 4.4 4.2 4.2 4.1 4.0 4.0 3.9 3.9 4.0 4.2 4.4 4.5 4.9 5.2 5.2 5.2 5.3 5.2 5.2 6.0 6.2 6.3 6.6 6.5 6.7
4.8 5.3 5.3 5.3 5.2 nan 4.6 4.7 5.3 5.3 5.5 5.5 5.0 4.8 5.0 5.1 5.2 5.5 5.6 5.2 4.7 4.4 4.2 4.0 3.9 4.3 3.5 3.6 3.5 3.8 4.6 5.1 4.8 4.6 5.4 5.7 6.0 6.2 5.9 6.1 6.7 7.2 7.2
4.9 5.0 4.8 4.8 5.2 5.3 5.6 5.9 5.9 nan 4.9 5.6 5.9 5.9 5.9 5.9 5.7 6.0 5.8 5.7 5.7 5.6 5.1 5.0 4.7 4.6 4.4 3.9 3.7 3.5 3.5 3.5 3.6 4.4 4.5 4.9 5.7 5.4 5.9 6.6 6.7 7.7 7.2
4.9 5.1 5.2 5.7 5.8 5.7 5.8 5.6 6.1 6.6 6.8 6.7 6.8 6.6 6.1 6.1 6.2 6.1 6.1 6.0 5.9 6.1 6.0 6.0 5.8 5.6 5.1 4.7 4.3 3.7 3.4 nan 3.1 3.0 4.0 4.4 5.3 6.0 6.1 6.6 6.8 6.7 7.5
5.5 5.6 5.9 6.0 6.1 5.9 6.1 6.4 5.9 5.7 6.0 6.1 6.3 6.4 6.6 6.7 6.6 6.3 6.5 6.6 6.8 6.8 6.9 6.6 6.6 6.8 6.4 5.2 4.7 3.5 nan nan 3.4 nan 3.6 4.5 5.9 6.3 6.0 6.6 6.8 6.8 7.0